CZ-2D DEB

Satellite information

Favourite Embed

Satellite Type and Status

DEBRISIN ORBIT

Key statistics

Satellite CZ-2D DEB at a glance.

Uptime

2768

Days in orbit

Revolutions

≈ 15.0

Per day

Orbit

SSO

Sun Synchronous Orbit

Inclination

97.6

Latest

Satellite identification and parameters

Extended collection of information and parameters for CZ-2D DEB.

Object identification

Identified? True

Debris? True

Object name: CZ-2D DEB

International designator: 2017-060B

Object number (NORAD): 44609

Object ID (CCSDS): 44609

Country: PEOPLES REPUBLIC OF CHINA (PRC)

Current information (Y/N): Y

RCS size: SMALL

Orbital parameters

Period: 96.291 minutes

Inclination: 97.5633 deg

SMA: 6959.06 km

Apoapsis: 604.005 km

Periapsis: 557.845 km

RAAN: 154.5359 deg

Eccentricy: 0.0033165

Argument of periapsis: 231.6976 deg

Mean anomaly: 128.1262 deg

Mean motion: 14.95467149 rev/day

Mean motion (dot): 0.00004291 rev/day2

B* drag term: 0.00038869 1/REarth

Two-line elements (TLE)

Creation date: May 8, 2025, 3:01 a.m.

Reference frame: TEME

Reference center: EARTH

Epoch: May 7, 2025, 8:29 p.m. UTC

TLE line 0: 0 CZ-2D DEB

TLE line 1: 1 44609U 17060B 25127.85392648 .00004291 00000-0 38869-3 0 9992

TLE line 2: 2 44609 97.5633 154.5359 0033165 231.6976 128.1262 14.95467149404507

Live tracking on map

Real-time ground track for satellite CZ-2D DEB.

In-orbit conjunctions

A list of the most updated potential collisions computed for object CZ-2D DEB.

Target Orbit TCA Probability of collision Miss distance Type
SL-14 R/B LEO 2024-09-27 20:24:14 0.002615257 253.0 (m) ROCKET BODY
GP-B LEO 2024-08-10 09:16:30 0.0003031203 290.0 (m) PAYLOAD

Associated space launch

VRSS-2 is the second Venezuelan remote sensing satellite. Spacecraft was built by China. Weighing about 1000 kg, it is to operate in sun-synchronous orbit at an altitude of 645 kilometres, providing services in traffic management, disaster warning and prevention, tracking agriculture and land use.

CZ-2D DEB was lifted into orbit during the mission ‘Long March 2D | VRSS-2 (Antonio José de Sucre)’, on board a Long March 2D space rocket.

The launch took place on Oct. 9, 2017, 4:13 a.m. from Launch Area 4 (SLS-2 / 603).

For more information about the launch, click the button.

Launch to space Long March 2D | VRSS-2 (Antonio José de Sucre)
Long March 2D | VRSS-2 (Antonio José de Sucre)

Agency: N/A

Status: Launch Successful

Launch date: Oct. 9, 2017, 4:13 a.m. UTC

Rocket: Long March 2D

Launch pad: Launch Area 4 (SLS-2 / 603)

Location: Jiuquan Satellite Launch Center, People's Republic of China

...

Latest news about this satellite

There are no fresh news available about this satellite. Check back as we update our databases every day.


Newsletter sign-up

Weekly statistics, charts and insights to help you stay on top of the space industry.